Regional Weather Roundup
Issued by NWS Newport/Morehead, NC

Current Version | Previous Version | Text Only | Print | Product List | Glossary On
Versions: 1 2 3 4 5 6 7 8 9 10 11 12 13 14 15 16 17 18 19 20 21 22 23 24 25 26 27 28 29 30 31 32 33 34 35 36 37 38 39 40 41 42 43 44 45 46 47 48 49 50
000 ASUS42 KMHX 041323 RWRMHX WEATHER ROUNDUP FOR EASTERN NORTH CAROLINA NATIONAL WEATHER SERVICE NEWPORT/MOREHEAD CITY NC 800 AM EST THU MAR 04 2021 NOTE: "FAIR" INDICATES FEW OR NO CLOUDS BELOW 12,000 FEET WITH NO SIGNIFICANT WEATHER AND/OR OBSTRUCTIONS TO VISIBILITY NCZ015>017-031-032-045>047-102-103-041400- NORTH COAST CITY SKY/WX TMP DP RH WIND PRES REMARKS EDENTON SUNNY 50 38 64 N6 29.95S ELIZABETH CITY SUNNY 45 32 60 W6 29.93R KITTY HAWK SUNNY 47 39 72 W5 29.91R MANTEO SUNNY 49 39 68 NW6 29.93R $$ NCZ045>047-081-094-103-104-041400- CENTRAL COAST CITY SKY/WX TMP DP RH WIND PRES REMARKS FRISCO SUNNY 51 44 77 NW6 29.92R $$ NCZ095-097-098-100-101-041400- SOUTHERN COAST CITY SKY/WX TMP DP RH WIND PRES REMARKS PINEY ISLAND SUNNY 49 39 68 NW8 29.94R BEAUFORT SUNNY 49 37 63 NW9 29.95R CAPE CARTERET N/A N/A N/A N/A NW6 29.97R JACKSONVILLE SUNNY 48 34 58 NW7 29.97R WILMINGTON SUNNY 47 36 65 NW6 29.99R $$ NCZ011>013-027>030-043-044-078>080-089-090>093-098-041400- COASTAL PLAIN CITY SKY/WX TMP DP RH WIND PRES REMARKS AHOSKIE SUNNY 44 31 60 CALM 29.96S ROCKY MOUNT SUNNY 45 32 60 CALM 29.97R GREENVILLE SUNNY 48 32 53 NW3 29.98R WASHINGTON SUNNY 47 31 52 NW5 29.97R GOLDSBORO SUNNY 46 33 61 W5 29.96R KINSTON SUNNY 48 32 53 NW5 29.98R NEW BERN SUNNY 47 34 60 NW5 29.97R HAVELOCK SUNNY 45 39 79 SW6 29.97R KENANSVILLE SUNNY 48 32 53 W3 29.99R RICHLANDS SUNNY 45 36 70 CALM 29.98R CLINTON SUNNY 49 33 55 NW3 30.00R ELIZABETHTOWN SUNNY 48 33 55 NW5 30.01R WHITEVILLE SUNNY 49 33 53 N5 30.02S $$ AMZ130-135-150-152-154-156-158-170-250-252-270-ANZ085-086-088-633-658-670-041400- MARINE OBSERVATIONS STATION/POSITION TIME TEMP WIND PRES WAVE SWELL AIR SEA DIR/SP/G HT/PER HT/PER (UTC) (F) (DEG/KT/KT) (MB) (FT/S) (FT/S) 64 E VA BEACH 1310 50 51 290/ 8/ 10 1012.3 64 E VA BEACH 1300 50 51 N/A 2/ 9 2/10 DUCK PIER 1242 46 280/ 6/ 8 1012.7 2 E DUCK 1256 45 N/A 1/ 8 10 NE DUCK NOT AVBL OREGON INLET 1242 48 51 290/ 4/ 5 1013.0 13E OREGON INLT 1256 53 N/A 2/ 8 2/ 8 HATTERAS CG 1242 50 53 310/ 11/ 12 1013.1 DIAMOND BUOY 1310 57 71 N/A CAPE LOOKOUT 1300 50 330/ 10/ 13 1014.6 BEAUFORT LAB 1242 48 54 350/ 5/ 6 1014.6 30 SE NEW RVR IN NOT AVBL 30 SE NEW RVR IN 1256 63 N/A 4/ 9 2/11 27 SE WRIGHTSVLE 1308 55 60 N/A 5 SE WRIGHTSVLE 1308 52 340/ 10/ 16 1015.2 27 SE WRIGHTSVL 1308 55 60 N/A FRYING PAN BUOY 1310 55 56 330/ 8/ 10 1015.1 225 S CAPE HAT NOT AVBL 41 SE CHARLESTON NOT AVBL $$

USA.gov is the U.S. government's official web portal to all federal, state and local government web resources and services.